Stations météo

réclame
Mon MeteoGroup
Bremen, Allemagne (10224): Température de l'air & dewpoint: 02.07.2020 15:00:00 - 08.07.2020 15:00:00 (CEST)Bremen, Allemagne (10224): Température de l'air 5cm & Température de l'air -5cm: 02.07.2020 15:00:00 - 08.07.2020 15:00:00 (CEST)Bremen, Allemagne (10224): Température de l'air -20cm & Température de l'air -100cm: 02.07.2020 15:00:00 - 08.07.2020 15:00:00 (CEST)Bremen, Allemagne (10224): Vitesse du vent & gusts: 02.07.2020 15:00:00 - 08.07.2020 15:00:00 (CEST)Bremen, Allemagne (10224): Direction du vent: 02.07.2020 15:00:00 - 08.07.2020 15:00:00 (CEST)Bremen, Allemagne (10224): reduced air pressure: 02.07.2020 15:00:00 - 08.07.2020 15:00:00 (CEST)Bremen, Allemagne (10224): visibility: 02.07.2020 15:00:00 - 08.07.2020 15:00:00 (CEST)Bremen, Allemagne (10224): Ensoleillement: 02.07.2020 15:00:00 - 08.07.2020 15:00:00 (CEST)Bremen, Allemagne (10224): Quantités de précipitations: 02.07.2020 15:00:00 - 08.07.2020 15:00:00 (CEST)
Date & Time tt [°C] td [°C] tt 5cm [°C] tt -5cm [°C] tt -20cm [°C] tt -100cm [°C] ff [km/h] ff [knt] fx [km/h] fx [knt] dd ppp [hPa] vv [km] sd [min] rr [mm]
08.07.2020 15:00:00 17,1 8,4 20,1 22,7 18,5 17,5 11 6 16 9 WSW 1015,5 10 0 0,0
08.07.2020 14:00:00 16,7 8,4 19,1 23,5 18,1 17,5 10 6 20 11 W 1015,4 40 1 0,0
08.07.2020 13:00:00 16,8 8,8 19,2 22,4 17,7 17,5 9 5 18 10 SW 1015,1 40 0 0,0
08.07.2020 12:00:00 16,0 8,9 18,8 22,2 17,4 17,5 9 5 16 9 WSW 1015,1 10 11 0,0
08.07.2020 11:00:00 15,6 9,3 17,9 20,3 17,1 17,5 9 5 16 8 WSW 1015,0 10 0 0,0
08.07.2020 10:00:00 15,2 9,7 17,8 19,1 16,9 17,5 9 5 16 9 W 1014,8 10 0 0,0
08.07.2020 09:00:00 14,3 10,3 17,1 17,5 16,8 17,5 8 5 16 9 WSW 1014,8 30 20 0,0
08.07.2020 08:00:00 13,4 10,6 15,8 15,4 16,8 17,5 8 4 13 7 WSW 1014,7 10 3 0,0
08.07.2020 07:00:00 12,3 10,5 12,7 14,7 16,9 17,5 9 5 13 7 WSW 1014,8 10 3 0,0
08.07.2020 06:00:00 11,7 10,4 11,8 14,2 17,0 17,5 4 2 9 5 SW 1014,9 10 11 0,0
08.07.2020 05:00:00 11,4 10,2 11,0 14,1 17,2 17,5 5 3 9 5 SW 1015,2 10 0 0,0
08.07.2020 04:00:00 11,3 9,3 10,7 14,2 17,4 17,6 7 4 11 6 WSW 1015,4 40 0 0,0
08.07.2020 03:00:00 11,1 9,0 10,5 14,3 17,6 17,6 8 4 15 8 W 1015,8 10 0 0,0
08.07.2020 02:00:00 11,4 9,2 10,6 14,7 17,8 17,6 8 4 15 8 SW 1015,9 10 0 0,0
08.07.2020 01:00:00 12,5 7,9 11,7 15,0 18,0 17,6 13 7 25 13 W 1016,0 40 0 0,0
08.07.2020 00:00:00 13,2 8,2 12,5 15,4 18,3 17,6 16 9 29 16 W 1016,5 10 0 0,0
07.07.2020 23:00:00 13,4 9,4 12,6 15,9 18,5 17,6 14 7 22 12 WSW 1016,6 30 0 0,0
07.07.2020 22:00:00 14,1 8,7 13,4 16,4 18,7 17,6 16 9 24 13 W 1016,5 30 0 0,0
07.07.2020 21:00:00 14,7 8,4 14,1 17,2 18,8 17,6 15 8 26 14 W 1016,6 35 0 0,0
07.07.2020 20:00:00 15,2 8,6 15,0 17,9 19,0 17,6 13 7 31 17 WNW 1016,7 40 0 0,0
07.07.2020 19:00:00 15,2 8,9 15,2 18,5 19,1 17,6 22 12 34 18 WNW 1017,1 10 0 0,0
07.07.2020 18:00:00 15,2 11,5 15,3 18,7 19,3 17,6 11 6 28 15 WNW 1017,2 10 0 0,1
07.07.2020 17:00:00 13,4 10,7 12,5 19,3 19,4 17,6 19 10 41 22 WSW 1017,4 35 0 0,3
07.07.2020 16:00:00 14,5 12,6 14,2 21,2 19,2 17,6 16 9 56 30 W 1017,1 35 0 0,1
07.07.2020 15:00:00 18,1 8,0 19,3 25,0 18,7 17,6 33 18 45 24 SW 1016,8 50 14 0,0
07.07.2020 14:00:00 19,1 8,0 22,3 25,6 18,2 17,6 29 16 47 25 WSW 1017,2 10 45 0,0
07.07.2020 13:00:00 18,5 8,6 21,6 23,9 17,7 17,6 28 15 41 22 SW 1017,8 10 21 0,0
07.07.2020 12:00:00 17,2 8,1 20,1 23,0 17,2 17,6 15 8 29 16 SW 1018,5 10 30 0,0
07.07.2020 11:00:00 16,1 8,8 19,5 20,5 16,8 17,6 16 9 29 16 WSW 1019,0 35 10 0,0
07.07.2020 10:00:00 16,0 8,7 19,2 19,6 16,5 17,6 21 11 34 18 WSW 1019,1 10 54 0,0
07.07.2020 09:00:00 14,6 9,8 17,4 17,0 16,4 17,7 18 10 25 14 WSW 1019,4 25 60 0,0
07.07.2020 08:00:00 12,7 9,5 14,3 14,5 16,5 17,7 15 8 24 13 WSW 1019,4 10 60 0,0
07.07.2020 07:00:00 11,5 9,5 12,1 12,9 16,7 17,7 15 8 22 12 WSW 1019,5 18 47 0,0
07.07.2020 06:00:00 8,9 8,2 7,5 11,8 17,0 17,7 4 2 15 8 - 1019,1 10 10 0,0
07.07.2020 05:00:00 8,8 8,1 7,2 12,2 17,3 17,7 11 6 21 11 WSW 1018,9 10 0 0,0
07.07.2020 04:00:00 10,0 8,7 8,7 12,9 17,6 17,7 13 7 22 12 W 1019,2 10 0 0,0
07.07.2020 03:00:00 10,8 9,3 9,4 13,3 17,9 17,7 16 9 27 14 W 1019,1 25 0 0,0
07.07.2020 02:00:00 10,9 9,8 9,7 13,8 18,2 17,7 16 9 28 15 WSW 1019,1 10 0 0,0
07.07.2020 01:00:00 11,0 9,9 9,7 14,3 18,6 17,7 13 7 24 13 WSW 1018,8 10 0 0,0
07.07.2020 00:00:00 11,1 10,0 9,6 15,1 18,9 17,7 12 7 22 12 W 1018,3 25 0 0,0
06.07.2020 23:00:00 12,5 11,1 11,5 16,3 19,2 17,7 15 8 22 12 W 1017,8 10 0 0,0
06.07.2020 22:00:00 12,9 11,1 11,9 17,2 19,4 17,7 16 8 22 12 W 1017,3 18 4 0,0
06.07.2020 21:00:00 12,6 10,6 11,8 18,5 19,5 17,7 16 9 46 25 W 1016,6 10 12 0,1
06.07.2020 20:00:00 16,2 10,5 17,2 20,6 19,5 17,7 26 14 51 28 W 1015,8 10 30 0,0
06.07.2020 19:00:00 16,1 9,1 16,8 21,6 19,4 17,7 39 21 57 31 WNW 1015,0 10 36 0,0
06.07.2020 18:00:00 17,2 9,4 19,1 22,6 19,2 17,7 33 18 52 28 W 1014,0 40 53 0,0
06.07.2020 17:00:00 15,1 9,5 15,4 22,7 18,9 17,8 37 20 55 30 WNW 1013,7 10 31 0,0
06.07.2020 16:00:00 17,7 8,5 21,4 23,5 18,6 17,8 41 22 60 32 WNW 1012,7 10 58 0,0
06.07.2020 15:00:00 16,2 10,1 19,4 20,6 18,4 17,8 32 17 57 31 WNW 1012,3 40 19 0,2
06.07.2020 14:00:00 14,1 11,4 13,9 22,8 18,1 17,8 32 17 53 28 W 1011,6 15 39 0,1
06.07.2020 13:00:00 15,8 10,6 16,7 22,3 17,7 17,8 42 23 59 32 WSW 1010,7 40 36 0,0
06.07.2020 12:00:00 18,0 10,0 22,2 21,0 17,4 17,8 35 19 57 31 W 1009,8 10 49 0,0
06.07.2020 11:00:00 15,4 11,6 17,2 17,9 17,3 17,8 26 14 46 25 W 1009,5 35 16 0,1
06.07.2020 10:00:00 15,8 10,0 16,9 18,1 17,2 17,8 35 19 56 30 WSW 1009,1 10 34 0,0
06.07.2020 09:00:00 15,6 11,2 17,5 16,1 17,2 17,8 29 16 50 27 WSW 1008,9 35 17 0,0
06.07.2020 08:00:00 14,8 10,5 15,0 15,3 17,3 17,8 31 17 46 25 WSW 1008,4 10 47 0,0
06.07.2020 07:00:00 13,7 10,5 13,9 14,3 17,5 17,8 24 13 32 17 SW 1008,0 40 60 0,0
06.07.2020 06:00:00 12,5 10,2 11,8 14,1 17,7 17,8 17 9 28 15 SW 1007,9 30 9 0,0
06.07.2020 05:00:00 13,9 10,8 13,3 14,8 17,9 17,8 21 11 67 36 WSW 1007,6 30 0 0,0
06.07.2020 04:00:00 15,3 10,4 14,3 14,9 18,1 17,8 22 12 45 24 WSW 1007,1 10 0 0,0
06.07.2020 03:00:00 15,6 11,0 14,3 15,1 18,3 17,8 23 13 35 19 WSW 1007,4 30 0 0,0
06.07.2020 02:00:00 14,2 12,3 12,6 15,6 18,6 17,8 11 6 15 8 SSW 1007,6 10 0 0,0
06.07.2020 01:00:00 14,2 12,8 12,6 16,0 18,8 17,9 8 4 15 8 SSW 1007,6 10 0 0,0
06.07.2020 00:00:00 13,5 12,2 11,9 16,4 19,1 17,9 6 3 8 4 W 1008,0 30 0 0,0
05.07.2020 23:00:00 14,9 12,2 12,5 17,4 19,2 17,9 6 4 16 9 WNW 1008,1 30 0 0,0
05.07.2020 22:00:00 17,6 12,5 16,2 18,6 19,3 17,9 13 7 39 21 NW 1007,9 10 0 0,0
05.07.2020 21:00:00 20,0 12,1 19,4 19,8 19,3 17,9 26 14 50 27 W 1007,5 40 10 0,0
05.07.2020 20:00:00 20,8 12,2 20,6 20,8 19,2 17,9 29 16 51 27 W 1007,4 10 28 0,0
05.07.2020 19:00:00 22,5 12,3 23,3 21,1 19,1 17,9 30 16 53 28 W 1007,3 30 27 0,0
05.07.2020 18:00:00 21,7 13,4 21,9 21,2 18,9 17,9 31 17 51 28 W 1007,6 10 14 0,0
05.07.2020 17:00:00 23,7 13,4 25,5 22,1 18,7 17,9 39 21 57 31 WSW 1007,6 10 31 0,0
05.07.2020 16:00:00 22,2 14,2 23,4 21,6 18,5 17,9 42 23 62 34 WSW 1007,8 30 19 0,0
05.07.2020 15:00:00 20,7 16,4 21,7 21,2 18,3 17,9 36 19 62 34 WSW 1007,8 25 20 0,2
05.07.2020 14:00:00 19,6 18,0 19,4 19,9 18,1 17,9 37 20 55 30 SW 1007,6 10 1 0,0
05.07.2020 13:00:00 19,4 17,2 20,5 19,7 18,0 18,0 32 18 44 24 SW 1007,8 10 0 0,0
05.07.2020 12:00:00 18,5 17,2 18,0 18,3 18,0 18,0 29 16 48 26 SW 1007,7 7 0 0,0
05.07.2020 11:00:00 19,0 15,9 18,5 18,0 18,0 18,0 34 18 61 33 SW 1007,5 8 0 0,0
05.07.2020 10:00:00 18,9 15,7 18,8 17,9 18,0 18,0 36 20 55 30 SW 1007,0 25 0 0,0
05.07.2020 09:00:00 18,5 16,2 18,5 18,0 18,0 18,0 29 16 55 30 SW 1006,7 10 0 0,0
05.07.2020 08:00:00 18,7 16,4 18,7 18,0 17,9 18,0 32 17 43 23 SW 1006,9 25 0 0,0
05.07.2020 07:00:00 18,4 16,3 18,1 17,6 18,0 18,0 22 12 49 27 SW 1007,3 10 0 0,0
05.07.2020 06:00:00 18,2 16,9 17,4 17,6 18,0 18,0 24 13 39 21 WSW 1007,6 45 0 0,0
05.07.2020 05:00:00 18,3 17,7 17,6 17,7 18,0 18,0 22 12 35 19 SW 1007,4 10 0 0,0
05.07.2020 04:00:00 18,5 17,5 17,7 17,6 18,0 18,0 22 12 34 18 SW 1007,6 10 0 0,0
05.07.2020 03:00:00 17,8 17,5 17,4 17,5 18,0 18,1 18 10 34 18 SW 1008,5 3,5 0 0,0
05.07.2020 02:00:00 17,8 17,4 17,3 17,5 18,0 18,1 22 12 36 20 SW 1009,1 5 0 0,0
05.07.2020 01:00:00 18,0 17,0 17,2 17,4 18,1 18,1 21 11 37 20 SSW 1009,4 12 0 0,0
05.07.2020 00:00:00 18,4 16,5 18,0 17,4 18,1 18,1 23 12 38 20 SSW 1009,8 45 0 0,0
04.07.2020 23:00:00 18,1 16,3 17,6 17,4 18,2 18,1 23 12 39 21 SW 1010,4 45 0 0,0
04.07.2020 22:00:00 18,3 16,1 17,0 17,5 18,2 18,1 21 11 39 21 SW 1010,7 10 0 0,0
04.07.2020 21:00:00 17,9 16,4 16,9 17,8 18,2 18,1 22 12 35 19 SW 1011,0 10 0 0,0
04.07.2020 20:00:00 17,8 16,6 17,1 18,0 18,3 18,1 19 10 36 20 SSW 1011,2 22 0 0,2
04.07.2020 19:00:00 17,3 16,5 16,8 18,1 18,3 18,1 23 12 35 19 SW 1011,4 12 0 0,7
04.07.2020 18:00:00 17,0 16,7 16,8 18,5 18,2 18,2 19 11 41 22 SW 1012,0 2,2 0 0,1
04.07.2020 17:00:00 18,4 15,5 18,4 19,1 18,1 18,2 30 16 51 27 SW 1011,7 40 0 0,0
04.07.2020 16:00:00 19,6 15,0 20,2 19,4 18,0 18,2 32 17 49 27 SW 1011,5 20 0 0,0
04.07.2020 15:00:00 19,5 14,5 19,6 19,0 17,8 18,2 34 18 52 28 SW 1011,5 30 0 0,0
04.07.2020 14:00:00 20,6 13,9 21,0 19,5 17,6 18,2 31 17 49 27 SW 1011,1 40 3 0,0
04.07.2020 13:00:00 19,4 13,9 20,5 18,5 17,5 18,2 24 13 49 27 SSW 1011,7 10 0 0,0
04.07.2020 12:00:00 17,7 13,1 17,9 17,1 17,5 18,2 24 13 42 23 SW 1012,1 40 0 0,0
04.07.2020 11:00:00 17,2 12,9 17,4 16,8 17,5 18,2 26 14 48 26 SW 1012,2 40 0 0,0
04.07.2020 10:00:00 16,7 12,4 16,9 16,6 17,5 18,2 29 16 47 25 SW 1012,6 10 0 0,0
04.07.2020 09:00:00 16,7 12,4 17,1 16,6 17,5 18,2 26 14 52 28 SW 1012,8 10 1 0,0
04.07.2020 08:00:00 15,5 12,6 15,3 15,6 17,5 18,2 22 12 36 20 SW 1012,9 10 0 0,1
04.07.2020 07:00:00 14,7 12,1 13,6 15,2 17,7 18,3 15 8 37 20 SW 1013,1 10 0 0,0
04.07.2020 06:00:00 15,9 10,8 15,3 15,1 17,8 18,3 22 12 39 21 SW 1013,0 35 0 0,0
04.07.2020 05:00:00 16,3 10,5 15,7 15,2 18,0 18,3 18 10 38 20 SW 1013,2 10 0 0,0
04.07.2020 04:00:00 16,6 10,7 15,8 15,3 18,1 18,3 24 13 37 20 SW 1013,2 10 0 0,0
04.07.2020 03:00:00 16,6 11,7 15,6 15,4 18,3 18,3 17 9 28 15 SSW 1013,3 30 0 0,0
04.07.2020 02:00:00 16,5 12,4 15,3 15,7 18,5 18,3 15 8 24 13 SW 1014,0 30 0 0,0
04.07.2020 01:00:00 15,6 13,2 14,3 16,0 18,7 18,3 8 4 16 9 SSW 1014,3 10 0 0,0
04.07.2020 00:00:00 16,3 13,3 14,7 16,4 18,9 18,3 10 5 15 8 SSW 1014,4 25 0 0,0
03.07.2020 23:00:00 16,6 14,2 15,0 17,2 19,1 18,3 8 5 11 6 SSW 1014,6 25 0 0,0
03.07.2020 22:00:00 18,3 14,3 16,8 17,9 19,2 18,3 9 5 15 8 SSW 1014,5 30 0 0,0
03.07.2020 21:00:00 19,1 14,3 18,5 18,6 19,3 18,3 13 7 22 12 SW 1014,5 10 0 0,0
03.07.2020 20:00:00 19,0 14,5 18,7 18,9 19,3 18,4 13 7 35 19 SSW 1014,5 10 0 0,0
03.07.2020 19:00:00 19,6 14,3 19,5 19,7 19,4 18,4 14 8 30 16 SW 1014,5 20 0 0,0
03.07.2020 18:00:00 17,4 14,7 16,2 19,4 19,3 18,4 29 16 44 24 SW 1014,9 10 0 0,1
03.07.2020 17:00:00 21,0 12,2 21,5 21,6 19,2 18,4 26 14 39 21 SW 1014,7 25 27 0,0
03.07.2020 16:00:00 21,6 12,2 23,0 21,3 19,0 18,4 28 15 41 22 SW 1014,9 30 17 0,0
03.07.2020 15:00:00 20,5 12,4 21,6 21,2 18,8 18,4 30 16 43 23 SW 1015,1 30 17 0,0
03.07.2020 14:00:00 20,1 12,5 21,0 21,7 18,5 18,4 22 12 37 20 SW 1015,2 30 26 0,0
03.07.2020 13:00:00 19,7 13,0 21,4 21,4 18,3 18,4 22 12 35 19 SW 1015,2 10 29 0,0
03.07.2020 12:00:00 18,5 12,6 19,5 19,8 18,1 18,4 20 11 28 15 WSW 1015,3 25 12 0,0
03.07.2020 11:00:00 16,6 13,1 16,4 19,8 17,8 18,4 21 11 31 17 SW 1015,2 25 31 0,0
03.07.2020 10:00:00 17,2 13,9 19,0 18,4 17,7 18,4 15 8 26 14 WSW 1015,1 10 13 0,0
03.07.2020 09:00:00 15,7 13,7 16,5 17,9 17,6 18,4 11 6 16 9 WSW 1014,9 20 37 0,0
03.07.2020 08:00:00 14,1 12,5 15,3 16,1 17,6 18,5 8 4 11 6 SW 1014,8 10 42 0,0
03.07.2020 07:00:00 12,5 11,6 13,0 14,3 17,9 18,5 0 0 10 5 N 1014,4 10 60 0,0
03.07.2020 06:00:00 10,7 10,6 9,3 13,3 18,2 18,5 3 1 5 3 S 1014,1 4,5 20 0,0
03.07.2020 05:00:00 10,4 10,3 8,6 13,6 18,5 18,5 4 2 13 7 - 1013,6 8 0 0,0
03.07.2020 04:00:00 12,1 11,6 11,0 14,2 18,8 18,5 11 6 15 8 SSW 1013,4 10 0 0,0
03.07.2020 03:00:00 11,9 11,8 10,5 14,9 19,1 18,5 8 4 9 5 SSW 1013,3 10 0 0,0
03.07.2020 02:00:00 12,8 12,4 10,8 15,6 19,4 18,5 8 4 11 6 SW 1013,1 10 0 0,0
03.07.2020 01:00:00 13,1 13,0 11,7 16,2 19,7 18,5 9 5 11 6 SW 1012,7 8 0 0,0
03.07.2020 00:00:00 13,7 13,5 12,8 17,2 19,9 18,5 5 3 10 6 SSW 1012,4 18 0 0,0
02.07.2020 23:00:00 14,6 13,1 13,6 18,0 20,1 18,6 11 6 26 14 WNW 1012,1 10 0 8,0
02.07.2020 22:00:00 15,8 14,6 15,3 19,3 20,2 18,6 16 9 26 14 NNW 1011,1 4,0 0 2,0
02.07.2020 21:00:00 18,0 14,1 17,5 20,3 20,3 18,6 9 5 13 7 SSW 1010,7 10 5 0,0
02.07.2020 20:00:00 18,6 14,1 18,8 21,1 20,3 18,6 9 5 18 10 SW 1010,5 10 7 0,0
02.07.2020 19:00:00 18,4 14,6 19,2 21,5 20,3 18,6 9 5 18 10 W 1010,0 10 0 0,0
02.07.2020 18:00:00 18,1 15,0 19,0 22,2 20,2 18,6 13 7 26 14 WNW 1010,1 10 8 0,0
02.07.2020 17:00:00 17,6 15,5 18,6 22,6 20,0 18,6 13 7 56 30 WNW 1010,0 18 1 0,3
02.07.2020 16:00:00 22,2 12,2 23,7 26,4 19,5 18,6 28 15 44 24 SW 1008,9 22 38 0,0
02.07.2020 15:00:00 23,6 12,9 28,7 25,3 19,2 18,6 23 13 40 22 SW 1009,1 22 40 0,0

tt = Température de l'air
td = dewpoint
tt 5cm = Température de l'air 5cm
tt -5cm = Température de l'air -5cm
tt -20cm = Température de l'air -20cm
tt -100cm = Température de l'air -100cm
ff = Vitesse du vent
fx = gusts
dd = Direction du vent
ppp = reduced air pressure
vv = visibility
sd = Ensoleillement
rr = Quantités de précipitations

stations d'obs. à proximité